User: anonymous   Login
Location: Oshawa
(43.9000°N, 78.8670°W)
Time: 20:45:12
(UTC-05:00)
Language:

PAYLOAD A - Orbit

View from above orbital plane
View from above orbital plane
View from above satellite
View from above satellite

Ground track
Ground track

The orbit data is extracted from the following two-line orbital elements,

1 27840U 03031A   17052.17474205 -.00000004  00000-0  11768-4 0  9995
2 27840  98.2019  54.7002 0099446 108.5564 252.6459 14.38874781716638
Epoch (UTC): 21 February 2017 04:11:37
Eccentricity: 0.0099446
inclination: 98.2019°
perigee height: 691 km
apogee height: 833 km
right ascension of ascending node: 54.7002°
argument of perigee: 108.5564°
revolutions per day: 14.38874781
mean anomaly at epoch: 252.6459°
orbit number at epoch: 71663

The dashed part of the orbit path shows where the satellite is in the earth's shadow,  

DLR